Data for 10/22/2009

Time Sea-Level Adjusted Pressure Absolute Pressure Temperature Relative Humidity Dew Point   
(mb) (inHg) (mb) (inHg) (C) (F) (%) (C) (F)
00:05 1022 30.18 851 25.13 0.7 33.3 93 -0.2 31.7
00:10 1022 30.18 851 25.13 0.8 33.4 93 -0.2 31.6
00:15 1022 30.18 851 25.13 0.7 33.2 93 -0.3 31.5
00:20 1022 30.18 851 25.13 0.7 33.2 93 -0.4 31.4
00:25 1022 30.18 851 25.13 0.7 33.2 93 -0.3 31.4
00:30 1022 30.18 851 25.13 0.6 33 93 -0.4 31.3
00:35 1022 30.18 851 25.13 0.6 33 94 -0.4 31.3
00:40 1022 30.18 851 25.13 0.5 33 93 -0.4 31.3
00:45 1022 30.18 851 25.13 0.5 33 93 -0.4 31.2
00:50 1022 30.18 851 25.13 0.5 32.9 93 -0.5 31.2
00:55 1022 30.18 851 25.13 0.5 32.9 93 -0.5 31.1
01:00 1022 30.18 851 25.13 0.5 32.9 93 -0.5 31.1
01:05 1022 30.18 851 25.13 0.4 32.8 93 -0.5 31
01:10 1022 30.18 851 25.13 0.4 32.8 93 -0.6 30.9
01:15 1022 30.18 851 25.13 0.4 32.7 93 -0.6 30.8
01:20 1022 30.18 851 25.13 0.3 32.6 93 -0.7 30.8
01:25 1022 30.18 851 25.13 0.3 32.5 93 -0.7 30.8
01:30 1022 30.18 851 25.13 0.3 32.5 93 -0.7 30.7
01:35 1022 30.18 851 25.13 0.2 32.4 93 -0.7 30.7
01:40 1022 30.18 851 25.13 0.2 32.4 93 -0.8 30.6
01:45 1022 30.18 851 25.13 0.1 32.2 93 -0.8 30.5
01:50 1022 30.18 851 25.13 0.1 32.1 94 -0.8 30.5
01:55 1022 30.18 851 25.13 0.1 32.2 93 -0.8 30.5
02:00 1022 30.18 851 25.13 0.1 32.1 93 -0.9 30.4
02:05 1022 30.18 851 25.13 -0.1 31.9 94 -0.9 30.4
02:10 1022 30.18 851 25.13 -0 32 93 -1 30.2
02:15 1022 30.18 851 25.13 -0.1 31.9 94 -1 30.2
02:20 1022 30.18 851 25.13 -0 31.9 93 -1 30.2
02:25 1022 30.18 851 25.13 -0.1 31.8 93 -1.1 30.1
02:30 1022 30.18 851 25.13 -0.1 31.8 93 -1.1 30
02:35 1022 30.18 851 25.13 -0.1 31.9 93 -1.1 30
02:40 1022 30.18 851 25.13 0.1 32.1 92 -1.1 30.1
02:45 1022 30.18 851 25.13 0.2 32.4 92 -1 30.2
02:50 1022 30.18 851 25.13 0.2 32.4 91 -1 30.2
02:55 1022 30.18 851 25.13 0.3 32.6 90 -1.1 30.1
03:00 1022 30.18 851 25.13 0.3 32.5 90 -1.1 30
03:05 1022 30.18 851 25.13 0.4 32.8 90 -1.1 30.1
03:10 1022 30.18 851 25.13 0.5 33 89 -1.1 30.1
03:15 1022 30.18 851 25.13 0.6 33 88 -1.2 29.9
03:20 1022 30.18 851 25.13 0.3 32.5 89 -1.3 29.7
03:25 1022 30.18 851 25.13 -0 32 91 -1.4 29.5
03:30 1021 30.15 851 25.13 0.1 32.2 90 -1.4 29.5
03:35 1021 30.15 851 25.13 0.3 32.5 90 -1.2 29.9
03:40 1021 30.15 851 25.13 0.3 32.5 90 -1.3 29.7
03:45 1021 30.15 851 25.13 0.2 32.4 90 -1.2 29.8
03:50 1021 30.15 850 25.1 0.2 32.4 89 -1.3 29.6
03:55 1021 30.15 850 25.1 0.2 32.4 90 -1.3 29.7
04:00 1021 30.15 850 25.1 0.1 32.2 89 -1.5 29.3
04:05 1021 30.15 850 25.1 0 32 90 -1.5 29.3
04:10 1021 30.15 850 25.1 -0.1 31.8 90 -1.6 29.2
04:15 1021 30.15 850 25.1 -0.1 31.9 90 -1.5 29.3
04:20 1021 30.15 850 25.1 -0 31.9 90 -1.5 29.3
04:25 1021 30.15 850 25.1 -0.1 31.7 90 -1.6 29.1
04:30 1021 30.15 850 25.1 0 32 89 -1.5 29.3
04:35 1021 30.15 850 25.1 0.1 32.1 89 -1.5 29.3
04:40 1021 30.15 850 25.1 -0 32 89 -1.5 29.2
04:45 1021 30.15 850 25.1 0 32 90 -1.5 29.3
04:50 1021 30.15 850 25.1 0.1 32.2 89 -1.5 29.3
04:55 1021 30.15 851 25.13 0.2 32.3 88 -1.6 29.2
05:00 1021 30.15 851 25.13 0.1 32.3 88 -1.6 29.1
05:05 1022 30.18 851 25.13 0.3 32.5 87 -1.6 29.2
05:10 1022 30.18 851 25.13 0.5 32.9 87 -1.4 29.5
05:15 1022 30.18 851 25.13 0.4 32.8 87 -1.4 29.4
05:20 1022 30.18 851 25.13 0.4 32.8 87 -1.5 29.3
05:25 1022 30.18 851 25.13 0.5 32.8 86 -1.6 29.1
05:30 1022 30.18 851 25.13 0.6 33 86 -1.5 29.2
05:35 1022 30.18 851 25.13 0.5 33 86 -1.6 29.2
05:40 1022 30.18 851 25.13 0.7 33.3 85 -1.6 29.2
05:45 1022 30.18 851 25.13 0.7 33.2 85 -1.6 29.1
05:50 1022 30.18 851 25.13 0.8 33.4 83 -1.8 28.7
05:55 1022 30.18 851 25.13 0.8 33.5 82 -2 28.5
06:00 1022 30.18 851 25.13 0.3 32.5 86 -1.8 28.7
06:05 1022 30.18 851 25.13 -0.4 31.3 88 -2.2 28
06:10 1022 30.18 851 25.13 -0.8 30.6 90 -2.1 28.1
06:15 1022 30.18 851 25.13 -0.7 30.7 90 -2.2 28
06:20 1022 30.18 851 25.13 -0.7 30.8 89 -2.2 28
06:25 1022 30.18 851 25.13 -0.5 31.1 88 -2.2 28
06:30 1022 30.18 851 25.13 -0.5 31.1 89 -2.1 28.2
06:35 1022 30.18 851 25.13 -0.1 31.8 88 -1.9 28.6
06:40 1022 30.18 851 25.13 -0.2 31.6 89 -1.9 28.7
06:45 1022 30.18 851 25.13 -0.4 31.3 90 -1.9 28.7
06:50 1022 30.18 851 25.13 -0.5 31.1 91 -1.9 28.6
06:55 1022 30.18 851 25.13 -0.7 30.8 91 -2 28.4
07:00 1022 30.18 851 25.13 -0.8 30.6 91 -2.1 28.3
07:05 1022 30.18 851 25.13 -0.9 30.4 91 -2.1 28.2
07:10 1022 30.18 851 25.13 -1 30.3 91 -2.2 28
07:15 1021 30.15 851 25.13 -1 30.2 92 -2.2 28.1
07:20 1021 30.15 851 25.13 -1.1 30.1 92 -2.2 28
07:25 1021 30.15 851 25.13 -1.1 30 93 -2.2 28.1
07:30 1021 30.15 850 25.1 -1.2 29.9 92 -2.3 27.9
07:35 1021 30.15 850 25.1 -1.2 29.9 92 -2.3 27.9
07:40 1021 30.15 850 25.1 -1.2 29.9 92 -2.3 27.9
07:45 1021 30.15 850 25.1 -1.1 29.9 92 -2.3 27.8
07:50 1021 30.15 850 25.1 -1 30.1 92 -2.2 28
07:55 1021 30.15 850 25.1 -1 30.1 91 -2.3 27.9
08:00 1021 30.15 850 25.1 -1.2 29.8 92 -2.4 27.6
08:05 1021 30.15 850 25.1 -1.2 29.8 91 -2.5 27.5
08:10 1021 30.15 850 25.1 -1.1 29.9 91 -2.5 27.6
08:15 1021 30.15 850 25.1 -1 30.2 90 -2.5 27.6
08:20 1021 30.15 850 25.1 -0.8 30.6 89 -2.4 27.7
08:25 1021 30.15 850 25.1 -0.5 31.2 88 -2.3 27.9
08:30 1021 30.15 850 25.1 -0 32 86 -2.1 28.1
08:35 1021 30.15 850 25.1 0.3 32.5 84 -2.1 28.3
08:40 1021 30.15 850 25.1 0.5 32.9 84 -2 28.5
08:45 1021 30.15 850 25.1 0.6 33.1 83 -1.9 28.6
08:50 1021 30.15 850 25.1 0.8 33.5 83 -1.8 28.7
08:55 1021 30.15 850 25.1 0.9 33.6 83 -1.8 28.8
09:00 1021 30.15 850 25.1 1.1 34 81 -1.8 28.8
09:05 1021 30.15 850 25.1 1.2 34.2 80 -1.8 28.8
09:10 1021 30.15 850 25.1 1.4 34.5 81 -1.6 29.1
09:15 1021 30.15 850 25.1 1.6 34.9 79 -1.7 29
09:20 1021 30.15 850 25.1 1.9 35.4 78 -1.5 29.3
09:25 1021 30.15 850 25.1 2.2 35.9 77 -1.5 29.4
09:30 1021 30.15 850 25.1 2.7 36.8 74 -1.5 29.4
09:35 1021 30.15 850 25.1 3 37.3 72 -1.6 29.1
09:40 1021 30.15 850 25.1 3.6 38.4 69 -1.5 29.3
09:45 1021 30.15 850 25.1 4.2 39.6 70 -0.7 30.7
09:50 1021 30.15 850 25.1 4.5 40.1 66 -1.3 29.7
09:55 1021 30.15 851 25.13 5 41.1 64 -1.3 29.7
10:00 1021 30.15 851 25.13 5 41 63 -1.4 29.5
10:05 1021 30.15 851 25.13 5.4 41.8 62 -1.2 29.9
10:10 1022 30.18 851 25.13 5.4 41.8 60 -1.6 29.1
10:15 1022 30.18 851 25.13 5.7 42.2 58 -2 28.5
10:20 1022 30.18 851 25.13 6.4 43.4 58 -1.3 29.6
10:25 1022 30.18 851 25.13 6.6 44 64 0.3 32.5
10:30 1022 30.18 851 25.13 4.8 40.7 75 0.7 33.3
10:35 1022 30.18 851 25.13 4.3 39.8 76 0.5 32.9
10:40 1022 30.18 851 25.13 4.7 40.4 72 0.1 32.1
10:45 1022 30.18 851 25.13 5 40.9 73 0.6 33.1
10:50 1022 30.18 851 25.13 5.5 41.8 69 0.3 32.6
10:55 1022 30.18 851 25.13 5.7 42.3 67 0.1 32.1
11:00 1021 30.15 851 25.13 6.1 43.1 65 0.2 32.3
11:05 1021 30.15 851 25.13 6.5 43.7 64 0.3 32.5
11:10 1021 30.15 851 25.13 6.6 44 61 -0.4 31.3
11:15 1021 30.15 851 25.13 6.9 44.4 60 -0.3 31.5
11:20 1021 30.15 850 25.1 6.9 44.5 62 0.2 32.4
11:25 1021 30.15 850 25.1 6.8 44.3 61 -0.1 31.8
11:30 1021 30.15 850 25.1 7.3 45.2 55 -1 30.2
11:35 1021 30.15 850 25.1 7.2 44.9 58 -0.6 30.9
11:40 1021 30.15 850 25.1 6.3 43.3 58 -1.4 29.4
11:45 1021 30.15 850 25.1 6.5 43.7 55 -1.8 28.7
11:50 1021 30.15 850 25.1 6.9 44.5 56 -1.3 29.6
11:55 1021 30.15 850 25.1 7 44.5 55 -1.3 29.6
12:00 1021 30.15 850 25.1 7.6 45.6 55 -0.8 30.6
12:05 1021 30.15 850 25.1 8 46.3 55 -0.6 30.9
12:10 1021 30.15 850 25.1 8.2 46.7 55 -0.2 31.6
12:15 1021 30.15 850 25.1 8.5 47.3 53 -0.5 31.2
12:20 1021 30.15 850 25.1 8.9 48.1 53 -0.1 31.9
12:25 1021 30.15 850 25.1 8.6 47.5 53 -0.3 31.5
12:30 1021 30.15 850 25.1 8.9 48 52 -0.4 31.2
12:35 1021 30.15 850 25.1 9.4 48.8 53 0.2 32.4
12:40 1021 30.15 850 25.1 8.2 46.7 57 0.2 32.4
12:45 1021 30.15 850 25.1 9.1 48.3 53 0 32
12:50 1021 30.15 850 25.1 9 48.1 52 -0.3 31.5
12:55 1021 30.15 850 25.1 9.4 48.9 52 0.1 32.1
13:00 1021 30.15 850 25.1 9.5 49 52 0.1 32.1
13:05 1021 30.15 850 25.1 9.1 48.3 52 -0.2 31.7
13:10 1021 30.15 850 25.1 8.2 46.8 56 0.1 32.2
13:15 1021 30.15 850 25.1 9.2 48.6 50 -0.7 30.7
13:20 1021 30.15 850 25.1 10 49.9 48 -0.4 31.3
13:25 1020 30.12 850 25.1 9.8 49.6 51 0.2 32.4
13:30 1020 30.12 850 25.1 8.5 47.3 53 -0.5 31.1
13:35 1020 30.12 850 25.1 8.6 47.4 54 -0.2 31.6
13:40 1020 30.12 850 25.1 8.7 47.6 54 -0.2 31.7
13:45 1020 30.12 850 25.1 9.5 49.1 50 -0.3 31.5
13:50 1020 30.12 849 25.07 10.1 50.2 47 -0.5 31.1
13:55 1020 30.12 849 25.07 10 50 50 0.2 32.4
14:00 1020 30.12 849 25.07 9.1 48.4 53 0 32.1
14:05 1020 30.12 849 25.07 9.7 49.4 49 -0.5 31.1
14:10 1020 30.12 849 25.07 9.3 48.7 52 -0.2 31.7
14:15 1020 30.12 849 25.07 8.8 47.8 50 -1 30.3
14:20 1020 30.12 849 25.07 9.2 48.5 51 -0.4 31.3
14:25 1020 30.12 849 25.07 9.9 49.7 48 -0.6 31
14:30 1020 30.12 849 25.07 10.3 50.5 48 -0.1 31.8
14:35 1020 30.12 849 25.07 9.7 49.5 49 -0.5 31.2
14:40 1020 30.12 849 25.07 10.3 50.6 46 -0.9 30.4
14:45 1020 30.12 849 25.07 10.6 51 46 -0.7 30.8
14:50 1020 30.12 849 25.07 10.7 51.2 45 -0.6 30.9
14:55 1019 30.09 849 25.07 11.7 53 43 -0.5 31.1
15:00 1019 30.09 849 25.07 11.5 52.6 42 -0.8 30.6
15:05 1019 30.09 849 25.07 10.5 50.8 42 -1.7 28.9
15:10 1019 30.09 849 25.07 11 51.8 43 -1 30.2
15:15 1019 30.09 848 25.04 11 51.8 42 -1.3 29.7
15:20 1019 30.09 848 25.04 10.9 51.7 44 -0.8 30.5
15:25 1019 30.09 848 25.04 10.4 50.7 43 -1.6 29.2
15:30 1019 30.09 848 25.04 11.3 52.3 42 -1.3 29.7
15:35 1019 30.09 848 25.04 11.1 52 43 -0.8 30.6
15:40 1019 30.09 848 25.04 10.6 51 45 -0.7 30.7
15:45 1019 30.09 848 25.04 10.8 51.4 44 -1 30.1
15:50 1019 30.09 848 25.04 11.4 52.5 43 -0.7 30.7
15:55 1019 30.09 848 25.04 11.1 52 44 -0.7 30.8
16:00 1019 30.09 848 25.04 10.6 51 43 -1.5 29.4
16:05 1019 30.09 848 25.04 10.5 50.8 45 -1 30.1
16:10 1019 30.09 848 25.04 10.1 50.2 46 -1.1 30
16:15 1019 30.09 848 25.04 10.6 51 44 -1.1 30
16:20 1019 30.09 848 25.04 10.8 51.4 42 -1.4 29.4
16:25 1019 30.09 848 25.04 11.4 52.4 41 -1.3 29.6
16:30 1019 30.09 848 25.04 11 51.8 43 -1.2 29.9
16:35 1019 30.09 848 25.04 11.6 52.8 40 -1.6 29.1
16:40 1019 30.09 848 25.04 12 53.5 39 -1.5 29.3
16:45 1019 30.09 848 25.04 11.9 53.4 39 -1.6 29.1
16:50 1019 30.09 848 25.04 11.6 52.8 40 -1.4 29.4
16:55 1018 30.06 848 25.04 11.7 53.1 38 -1.9 28.5
17:00 1018 30.06 848 25.04 12.3 54.1 37 -2 28.4
17:05 1018 30.06 848 25.04 12.7 54.8 36 -2 28.4
17:10 1018 30.06 848 25.04 12.8 55 36 -1.8 28.7
17:15 1018 30.06 848 25.04 12.2 53.9 38 -1.7 29
17:20 1018 30.06 848 25.04 11.8 53.3 39 -1.7 29
17:25 1018 30.06 847 25.01 11.4 52.5 39 -1.9 28.6
17:30 1018 30.06 847 25.01 11.3 52.3 40 -1.7 28.9
17:35 1018 30.06 847 25.01 10.8 51.4 42 -1.5 29.4
17:40 1018 30.06 847 25.01 10.3 50.6 43 -1.6 29.2
17:45 1018 30.06 847 25.01 9.9 49.8 44 -1.7 28.9
17:50 1018 30.06 847 25.01 9.6 49.2 46 -1.5 29.4
17:55 1018 30.06 847 25.01 9.4 48.9 46 -1.5 29.3
18:00 1018 30.06 847 25.01 9.3 48.7 46 -1.6 29
18:05 1018 30.06 847 25.01 9.2 48.5 46 -1.7 28.9
18:10 1018 30.06 847 25.01 9.2 48.5 46 -1.8 28.8
18:15 1018 30.06 847 25.01 9.2 48.5 46 -1.8 28.8
18:20 1018 30.06 847 25.01 9.1 48.3 46 -1.8 28.7
18:25 1018 30.06 847 25.01 9.1 48.4 46 -1.8 28.8
18:30 1018 30.06 847 25.01 8.9 48 51 -0.7 30.7
18:35 1018 30.06 847 25.01 8.1 46.5 65 1.9 35.4
18:40 1018 30.06 847 25.01 6.9 44.4 69 1.5 34.7
18:45 1018 30.06 847 25.01 6.6 43.9 69 1.3 34.3
18:50 1018 30.06 847 25.01 6.5 43.7 69 1.3 34.4
18:55 1018 30.06 847 25.01 6.1 43 71 1.2 34.2
19:00 1018 30.06 847 25.01 5.8 42.5 72 1.2 34.1
19:05 1018 30.06 847 25.01 5.6 42.1 73 1.1 34
19:10 1018 30.06 847 25.01 5.6 42 73 1 33.9
19:15 1018 30.06 847 25.01 5.3 41.5 75 1.2 34.1
19:20 1018 30.06 847 25.01 5 41.1 74 0.8 33.5
19:25 1018 30.06 847 25.01 4.9 40.9 73 0.4 32.8
19:30 1018 30.06 847 25.01 5 41 72 0.4 32.7
19:35 1018 30.06 847 25.01 4.9 40.9 73 0.4 32.7
19:40 1018 30.06 847 25.01 4.8 40.7 73 0.3 32.5
19:45 1018 30.06 847 25.01 4.7 40.5 72 0.2 32.3
19:50 1018 30.06 847 25.01 4.7 40.4 69 -0.4 31.2
19:55 1018 30.06 847 25.01 4.9 40.8 69 -0.3 31.4
20:00 1018 30.06 847 25.01 5 41 69 -0.1 31.7
20:05 1018 30.06 847 25.01 5 40.9 70 -0.1 31.9
20:10 1018 30.06 847 25.01 4.9 40.8 70 -0.1 31.9
20:15 1018 30.06 847 25.01 4.9 40.9 69 -0.2 31.7
20:20 1018 30.06 847 25.01 5 41 69 -0.2 31.7
20:25 1018 30.06 847 25.01 4.9 40.8 70 -0.1 31.9
20:30 1018 30.06 847 25.01 4.8 40.6 71 -0.1 31.8
20:35 1018 30.06 847 25.01 4.8 40.6 70 -0.2 31.7
20:40 1018 30.06 847 25.01 4.8 40.7 71 -0.1 31.8
20:45 1018 30.06 847 25.01 4.8 40.7 70 -0.2 31.7
20:50 1018 30.06 847 25.01 4.9 40.8 70 -0.1 31.9
20:55 1018 30.06 847 25.01 4.9 40.9 69 -0.2 31.6
21:00 1018 30.06 847 25.01 5 41 69 -0.3 31.5
21:05 1018 30.06 847 25.01 5.2 41.3 66 -0.5 31
21:10 1018 30.06 847 25.01 5.2 41.4 67 -0.4 31.3
21:15 1018 30.06 847 25.01 5.2 41.3 68 -0.3 31.5
21:20 1018 30.06 847 25.01 5.1 41.2 69 -0.2 31.7
21:25 1018 30.06 847 25.01 5.1 41.1 69 -0.2 31.6
21:30 1018 30.06 847 25.01 5 41 68 -0.4 31.2
21:35 1018 30.06 847 25.01 5.1 41.1 66 -0.7 30.7
21:40 1018 30.06 847 25.01 5.3 41.5 65 -0.7 30.8
21:45 1018 30.06 847 25.01 5.4 41.8 65 -0.6 30.9
21:50 1018 30.06 847 25.01 5.5 41.9 66 -0.3 31.5
21:55 1018 30.06 847 25.01 5.4 41.7 67 -0.2 31.6
22:00 1018 30.06 847 25.01 5.3 41.5 69 -0 32
22:05 1018 30.06 847 25.01 5.2 41.3 68 -0.3 31.5
22:10 1018 30.06 847 25.01 5.2 41.4 68 -0.2 31.7
22:15 1018 30.06 847 25.01 5.2 41.4 69 -0 32
22:20 1018 30.06 847 25.01 5.2 41.3 69 0 32
22:25 1018 30.06 847 25.01 5.2 41.4 69 -0.1 31.9
22:30 1018 30.06 847 25.01 5.3 41.5 68 -0.2 31.6
22:35 1018 30.06 847 25.01 5.4 41.7 68 -0.1 31.8
22:40 1018 30.06 847 25.01 5.4 41.8 67 -0.2 31.7
22:45 1018 30.06 847 25.01 5.6 42 68 0.2 32.4
22:50 1018 30.06 847 25.01 5.4 41.7 71 0.4 32.8
22:55 1018 30.06 847 25.01 5 41.1 72 0.4 32.7
23:00 1018 30.06 847 25.01 4.8 40.7 73 0.3 32.6
23:05 1018 30.06 847 25.01 4.8 40.7 72 0.3 32.5
23:10 1018 30.06 847 25.01 4.9 40.8 73 0.4 32.7
23:15 1018 30.06 847 25.01 4.8 40.7 72 0.3 32.6
23:20 1018 30.06 847 25.01 4.9 40.9 73 0.4 32.8
23:25 1018 30.06 847 25.01 4.9 40.8 72 0.3 32.6
23:30 1018 30.06 847 25.01 4.9 40.9 72 0.3 32.6
23:35 1018 30.06 847 25.01 5.1 41.1 71 0.2 32.3
23:40 1018 30.06 847 25.01 5.1 41.3 71 0.3 32.6
23:45 1018 30.06 847 25.01 5.2 41.4 69 0 32.1
23:50 1018 30.06 847 25.01 5.3 41.5 70 0.2 32.4
23:55 1018 30.06 847 25.01 5.3 41.5 70 0.2 32.4
24:00 1018 30.06 847 25.01 5.3 41.5 69 0.1 32.2
00:05 1018 30.06 847 25.01 5.4 41.7 68 -0 32
00:10 1018 30.06 847 25.01 5.6 42.1 68 0.1 32.2
00:15 1018 30.06 847 25.01 5.7 42.3 68 0.2 32.4
00:20 1018 30.06 847 25.01 5.9 42.6 67 0.2 32.3
00:25 1018 30.06 847 25.01 6.1 42.9 66 0.2 32.3
00:30 1018 30.06 848 25.04 6.1 42.9 67 0.5 32.9
00:35 1018 30.06 848 25.04 6 42.8 67 0.4 32.7
00:40 1018 30.06 848 25.04 6 42.7 68 0.5 32.9
00:45 1018 30.06 848 25.04 5.9 42.6 68 0.4 32.8
00:50 1018 30.06 848 25.04 5.9 42.6 66 0.1 32.3
00:55 1019 30.09 848 25.04 6.1 42.9 67 0.5 32.9
01:00 1019 30.09 848 25.04 6.2 43.1 65 0.2 32.3
01:05 1019 30.09 848 25.04 6.5 43.6 66 0.6 33.2
01:10 1019 30.09 848 25.04 6.5 43.7 67 0.9 33.6
01:15 1019 30.09 848 25.04 6.2 43.2 70 1.1 34.1
01:20 1019 30.09 848 25.04 6 42.8 69 0.8 33.5
01:25 1019 30.09 848 25.04 6.1 42.9 70 1 33.7
01:30 1019 30.09 848 25.04 6.1 42.9 69 0.9 33.5
01:35 1019 30.09 848 25.04 5.9 42.7 73 1.4 34.5
01:40 1019 30.09 848 25.04 5.8 42.4 73 1.3 34.3
01:45 1019 30.09 848 25.04 5.7 42.3 72 1.1 33.9
01:50 1019 30.09 848 25.04 5.8 42.5 73 1.4 34.5
01:55 1019 30.09 848 25.04 5.7 42.3 72 1.1 34
02:00 1019 30.09 848 25.04 5.8 42.5 72 1.2 34.2
02:05 1019 30.09 848 25.04 5.8 42.4 73 1.3 34.4
02:10 1019 30.09 848 25.04 5.5 41.9 73 1.1 34
02:15 1019 30.09 848 25.04 5.5 41.8 75 1.4 34.5
02:20 1019 30.09 848 25.04 5.3 41.5 77 1.5 34.7
02:25 1019 30.09 848 25.04 5.1 41.2 77 1.4 34.6
02:30 1019 30.09 848 25.04 5.1 41.2 78 1.5 34.8
02:35 1019 30.09 848 25.04 5.1 41.1 77 1.3 34.3
02:40 1019 30.09 848 25.04 5.2 41.3 75 1.2 34.1
02:45 1019 30.09 848 25.04 5.2 41.4 75 1.2 34.1
02:50 1019 30.09 848 25.04 5.2 41.4 75 1.1 34
02:55 1019 30.09 848 25.04 5.3 41.6 74 1 33.8
03:00 1019 30.09 848 25.04 5.4 41.7 75 1.2 34.2
03:05 1019 30.09 848 25.04 5.3 41.5 76 1.3 34.3
03:10 1019 30.09 848 25.04 5.2 41.3 77 1.4 34.5
03:15 1019 30.09 848 25.04 5.1 41.2 76 1.3 34.3
03:20 1019 30.09 848 25.04 5.2 41.3 75 1 33.8
03:25 1019 30.09 848 25.04 5.3 41.5 74 1 33.8
03:30 1019 30.09 848 25.04 5.3 41.5 74 1.1 34
03:35 1019 30.09 848 25.04 5.3 41.5 74 1.1 33.9
03:40 1019 30.09 848 25.04 5.4 41.8 73 1 33.8
03:45 1019 30.09 848 25.04 5.7 42.3 72 1.1 34
03:50 1019 30.09 848 25.04 5.9 42.6 70 0.8 33.5
03:55 1019 30.09 848 25.04 6 42.7 71 1.1 33.9
04:00 1019 30.09 848 25.04 5.8 42.4 74 1.4 34.6
04:05 1019 30.09 848 25.04 5.4 41.7 75 1.4 34.6
04:10 1019 30.09 848 25.04 5.3 41.5 74 1 33.8
04:15 1019 30.09 848 25.04 5.3 41.5 76 1.4 34.5
04:20 1019 30.09 848 25.04 5 41.1 77 1.3 34.4
04:25 1019 30.09 848 25.04 5 41 77 1.2 34.2
04:30 1019 30.09 848 25.04 5 41 77 1.3 34.3
04:35 1019 30.09 848 25.04 5 41 77 1.3 34.3
04:40 1019 30.09 848 25.04 5 41 77 1.3 34.3
04:45 1019 30.09 848 25.04 5.1 41.1 76 1.3 34.3
04:50 1019 30.09 848 25.04 5.1 41.3 76 1.2 34.2
04:55 1019 30.09 848 25.04 5.2 41.3 75 1.2 34.1
05:00 1019 30.09 848 25.04 5.3 41.5 75 1.2 34.1
05:05 1019 30.09 848 25.04 5.5 41.9 73 1 33.8
05:10 1019 30.09 848 25.04 5.7 42.3 71 0.9 33.7
05:15 1019 30.09 848 25.04 5.8 42.5 70 0.9 33.6
05:20 1019 30.09 848 25.04 6 42.8 69 0.7 33.3
05:25 1019 30.09 848 25.04 6.2 43.1 70 1.1 33.9
05:30 1019 30.09 848 25.04 6.1 42.9 68 0.7 33.3
05:35 1019 30.09 848 25.04 6 42.9 73 1.5 34.7
05:40 1019 30.09 848 25.04 5.7 42.3 71 0.9 33.7
05:45 1019 30.09 848 25.04 5.8 42.4 74 1.4 34.5
05:50 1019 30.09 848 25.04 5.5 42 76 1.6 34.8
05:55 1019 30.09 848 25.04 5.3 41.5 77 1.6 34.8
06:00 1019 30.09 848 25.04 5.1 41.2 78 1.6 34.8
06:05 1019 30.09 848 25.04 5.1 41.2 78 1.5 34.7
06:10 1019 30.09 848 25.04 5.1 41.2 78 1.6 34.8
06:15 1019 30.09 848 25.04 5.1 41.2 77 1.4 34.6
06:20 1019 30.09 848 25.04 5.3 41.5 77 1.5 34.7
06:25 1019 30.09 848 25.04 5.2 41.4 77 1.5 34.8
06:30 1019 30.09 848 25.04 5.2 41.4 78 1.6 34.9
06:35 1019 30.09 848 25.04 5.2 41.3 78 1.6 35
06:40 1019 30.09 848 25.04 5.1 41.3 78 1.7 35
06:45 1019 30.09 848 25.04 5.1 41.2 78 1.7 35
06:50 1019 30.09 848 25.04 5.1 41.2 79 1.7 35.1
06:55 1019 30.09 848 25.04 5.1 41.1 79 1.7 35
07:00 1019 30.09 848 25.04 5.1 41.1 78 1.6 34.9
07:05 1019 30.09 848 25.04 5.2 41.3 77 1.5 34.7
07:10 1019 30.09 848 25.04 5.3 41.6 75 1.3 34.3
07:15 1019 30.09 848 25.04 5.6 42 76 1.7 35
07:20 1019 30.09 848 25.04 5.5 41.9 77 1.8 35.2
07:25 1019 30.09 848 25.04 5.4 41.8 78 1.9 35.5
07:30 1019 30.09 848 25.04 5.3 41.5 79 1.9 35.4
07:35 1019 30.09 848 25.04 5.3 41.6 79 1.9 35.5
07:40 1019 30.09 848 25.04 5.3 41.6 78 1.8 35.3
07:45 1019 30.09 848 25.04 5.3 41.6 79 1.9 35.4
07:50 1019 30.09 848 25.04 5.2 41.3 79 1.8 35.2
07:55 1019 30.09 848 25.04 5.1 41.2 79 1.8 35.3
08:00 1019 30.09 848 25.04 5.1 41.1 81 2 35.6
08:05 1019 30.09 848 25.04 4.9 40.9 81 1.9 35.4
08:10 1019 30.09 849 25.07 5.1 41.1 80 1.9 35.5
08:15 1019 30.09 849 25.07 5.2 41.4 80 2 35.6
08:20 1019 30.09 849 25.07 5.2 41.4 80 2.1 35.7
08:25 1019 30.09 849 25.07 5.3 41.6 78 1.8 35.3
08:30 1019 30.09 849 25.07 5.6 42.1 75 1.5 34.8
08:35 1020 30.12 849 25.07 6 42.7 74 1.7 35
08:40 1020 30.12 849 25.07 6.2 43.1 73 1.6 34.9
08:45 1020 30.12 849 25.07 6.2 43.2 74 1.9 35.4
08:50 1020 30.12 849 25.07 6.1 42.9 75 1.9 35.5
08:55 1020 30.12 849 25.07 6 42.8 75 1.9 35.4
09:00 1020 30.12 849 25.07 6 42.8 75 1.9 35.5
09:05 1020 30.12 849 25.07 6 42.8 75 2 35.6
09:10 1020 30.12 849 25.07 5.9 42.6 77 2.1 35.9
09:15 1020 30.12 849 25.07 5.9 42.7 76 2.1 35.8
09:20 1020 30.12 849 25.07 6.2 43.1 74 2 35.5
09:25 1020 30.12 849 25.07 6.4 43.6 74 2.1 35.7
09:30 1020 30.12 849 25.07 6.6 43.8 75 2.5 36.5
09:35 1020 30.12 849 25.07 6.7 44 76 2.7 36.8
09:40 1020 30.12 849 25.07 6.6 43.9 75 2.5 36.6
09:45 1020 30.12 849 25.07 6.8 44.2 74 2.5 36.4
09:50 1020 30.12 849 25.07 6.9 44.4 73 2.5 36.4
09:55 1020 30.12 849 25.07 6.8 44.2 74 2.5 36.5
10:00 1020 30.12 849 25.07 6.6 43.9 75 2.4 36.4
10:05 1020 30.12 849 25.07 6.9 44.4 73 2.3 36.1
10:10 1020 30.12 849 25.07 7.1 44.7 71 2.1 35.9
10:15 1020 30.12 849 25.07 7.3 45.2 70 2.3 36.1
10:20 1020 30.12 849 25.07 7.5 45.5 70 2.4 36.3
10:25 1020 30.12 849 25.07 7.7 45.9 69 2.3 36.2
10:30 1020 30.12 849 25.07 7.9 46.1 68 2.4 36.3
10:35 1020 30.12 849 25.07 7.9 46.2 68 2.4 36.2
10:40 1020 30.12 849 25.07 8 46.3 67 2.1 35.9
10:45 1020 30.12 849 25.07 8.2 46.7 66 2.2 35.9
10:50 1020 30.12 849 25.07 8.3 46.9 65 2.1 35.9
10:55 1020 30.12 849 25.07 8.2 46.7 65 2 35.5
11:00 1020 30.12 849 25.07 8.4 47 63 1.9 35.3
11:05 1020 30.12 849 25.07 8.4 47.1 64 1.9 35.4
11:10 1020 30.12 849 25.07 8.4 47.1 64 2.1 35.8
11:15 1020 30.12 849 25.07 8.4 47.1 63 1.9 35.3
11:20 1020 30.12 849 25.07 8.5 47.3 63 2 35.6
11:25 1020 30.12 849 25.07 8.6 47.4 63 1.9 35.4
11:30 1020 30.12 849 25.07 8.7 47.6 62 1.9 35.5
11:35 1020 30.12 849 25.07 8.8 47.9 63 2.3 36.1
11:40 1020 30.12 849 25.07 9 48.2 61 1.9 35.3
11:45 1020 30.12 849 25.07 8.9 47.9 61 1.8 35.2
11:50 1020 30.12 849 25.07 8.8 47.9 61 1.7 35.1
11:55 1020 30.12 849 25.07 9.2 48.6 60 1.8 35.2
12:00 1020 30.12 849 25.07 9.5 49.1 60 2 35.7
12:05 1020 30.12 849 25.07 9 48.1 62 2.1 35.8
12:10 1020 30.12 850 25.1 8.7 47.6 62 1.8 35.3
12:15 1020 30.12 850 25.1 8.9 47.9 62 1.9 35.4
12:20 1020 30.12 849 25.07 9.3 48.7 61 2.2 35.9
12:25 1020 30.12 849 25.07 9.3 48.8 61 2.3 36.1
12:30 1020 30.12 849 25.07 9.2 48.6 61 2.3 36.1
12:35 1020 30.12 850 25.1 9.2 48.5 61 2.2 35.9
12:40 1020 30.12 850 25.1 9.2 48.6 59 1.7 35.1
12:45 1020 30.12 850 25.1 9.3 48.7 58 1.6 34.8
12:50 1020 30.12 850 25.1 9.3 48.8 58 1.6 34.9
12:55 1020 30.12 850 25.1 9.4 48.9 58 1.5 34.7
13:00 1020 30.12 849 25.07 9.5 49.1 58 1.6 34.8
13:05 1020 30.12 849 25.07 9.7 49.5 55 1.1 34
13:10 1020 30.12 849 25.07 10 49.9 55 1.4 34.6
13:15 1020 30.12 849 25.07 10 50 55 1.5 34.7
13:20 1020 30.12 849 25.07 9.8 49.7 56 1.5 34.7
13:25 1020 30.12 849 25.07 10.1 50.1 54 1.2 34.1
13:30 1020 30.12 849 25.07 10.9 51.6 53 1.8 35.3
13:35 1020 30.12 849 25.07 10.7 51.3 54 1.9 35.3
13:40 1020 30.12 849 25.07 10.3 50.5 55 1.6 34.9
13:45 1020 30.12 849 25.07 9.9 49.9 55 1.3 34.3
13:50 1020 30.12 849 25.07 9.7 49.5 55 1.2 34.1
13:55 1020 30.12 849 25.07 9.9 49.8 54 1 33.9
14:00 1020 30.12 849 25.07 10 50 54 1.1 33.9
14:05 1020 30.12 849 25.07 9.8 49.6 54 1 33.7
14:10 1020 30.12 849 25.07 9.6 49.2 55 1 33.8
14:15 1020 30.12 849 25.07 9.5 49.2 54 0.6 33.1
14:20 1020 30.12 849 25.07 9.6 49.3 51 0.1 32.2
14:25 1020 30.12 849 25.07 9.6 49.2 52 0.3 32.5
14:30 1020 30.12 849 25.07 9.8 49.6 51 0 32.1
14:35 1020 30.12 849 25.07 9.8 49.6 51 0.2 32.4
14:40 1020 30.12 849 25.07 9.8 49.6 48 -0.7 30.7
14:45 1020 30.12 849 25.07 9.8 49.6 45 -1.6 29.1
14:50 1020 30.12 849 25.07 9.8 49.6 45 -1.6 29.2
14:55 1020 30.12 849 25.07 9.8 49.7 44 -1.9 28.5
15:00 1020 30.12 849 25.07 9.9 49.8 44 -1.7 28.9
15:05 1020 30.12 849 25.07 9.9 49.9 43 -2 28.4
15:10 1020 30.12 849 25.07 10 50 43 -1.9 28.7
15:15 1020 30.12 849 25.07 10 50 46 -1.1 30
15:20 1020 30.12 849 25.07 10.3 50.5 47 -0.4 31.2
15:25 1020 30.12 849 25.07 10.3 50.5 46 -0.8 30.5
15:30 1020 30.12 849 25.07 10.4 50.6 45 -0.9 30.4
15:35 1020 30.12 849 25.07 10.7 51.2 46 -0.6 31
15:40 1020 30.12 849 25.07 10.4 50.6 46 -0.7 30.8
15:45 1020 30.12 849 25.07 10 50.1 47 -0.6 30.9
15:50 1020 30.12 849 25.07 9.6 49.4 48 -0.9 30.4
15:55 1020 30.12 849 25.07 9.5 49.2 47 -1.2 29.8
16:00 1020 30.12 849 25.07 9.7 49.4 47 -1.2 29.9
16:05 1020 30.12 849 25.07 9.8 49.6 47 -1 30.3
16:10 1020 30.12 849 25.07 9.6 49.2 47 -1.2 29.8
16:15 1020 30.12 850 25.1 9.5 49.2 47 -1.2 29.8
16:20 1020 30.12 850 25.1 9.7 49.5 47 -1.1 30
16:25 1020 30.12 850 25.1 9.8 49.6 46 -1.4 29.6
16:30 1020 30.12 850 25.1 10 49.9 43 -1.9 28.6
16:35 1020 30.12 850 25.1 10.6 51.1 41 -1.9 28.5
16:40 1020 30.12 849 25.07 11.1 51.9 40 -1.9 28.6
16:45 1020 30.12 849 25.07 11.3 52.3 40 -1.6 29.1
16:50 1020 30.12 850 25.1 11 51.7 42 -1.5 29.3
16:55 1020 30.12 849 25.07 10.5 50.9 42 -1.8 28.7
17:00 1020 30.12 849 25.07 10.2 50.3 43 -1.9 28.6
17:05 1020 30.12 849 25.07 10 50.1 43 -2 28.4
17:10 1020 30.12 849 25.07 10.2 50.4 41 -2.3 27.9
17:15 1020 30.12 849 25.07 10.5 50.9 42 -1.8 28.8
17:20 1020 30.12 849 25.07 10.8 51.4 41 -2 28.3
17:25 1020 30.12 849 25.07 11 51.7 41 -1.6 29.1
17:30 1020 30.12 849 25.07 10.2 50.3 42 -2 28.4
17:35 1020 30.12 849 25.07 9.9 49.9 45 -1.5 29.3
17:40 1020 30.12 849 25.07 9.4 49 47 -1.4 29.5
17:45 1020 30.12 849 25.07 9.1 48.4 48 -1.3 29.7
17:50 1020 30.12 849 25.07 8.9 48.1 50 -1 30.2
17:55 1020 30.12 849 25.07 8.9 48 50 -0.9 30.4
18:00 1020 30.12 849 25.07 8.6 47.5 51 -1 30.2
18:05 1020 30.12 849 25.07 8.6 47.4 51 -0.9 30.3
18:10 1020 30.12 849 25.07 8.6 47.4 50 -1.2 29.8
18:15 1020 30.12 849 25.07 8.7 47.7 49 -1.5 29.4
18:20 1020 30.12 849 25.07 8.7 47.6 49 -1.4 29.5
18:25 1020 30.12 849 25.07 8.3 47 50 -1.4 29.5
18:30 1020 30.12 849 25.07 8 46.4 50 -1.7 29
18:35 1020 30.12 850 25.1 7.8 46 51 -1.8 28.8
18:40 1020 30.12 850 25.1 7.6 45.8 52 -1.6 29.1
18:45 1020 30.12 850 25.1 7.6 45.7 51 -1.9 28.5
18:50 1020 30.12 850 25.1 7.8 46.1 50 -2 28.4
18:55 1020 30.12 850 25.1 7.7 45.9 52 -1.5 29.4
19:00 1021 30.15 850 25.1 7.2 45 58 -0.4 31.2
19:05 1021 30.15 850 25.1 6.7 44 59 -0.7 30.7
19:10 1021 30.15 850 25.1 6.8 44.2 60 -0.3 31.4
19:15 1021 30.15 850 25.1 6.8 44.3 60 -0.4 31.3
19:20 1021 30.15 850 25.1 6.9 44.4 60 -0.3 31.5
19:25 1021 30.15 850 25.1 7 44.7 59 -0.5 31.1
19:30 1021 30.15 850 25.1 7.2 45 58 -0.6 31
19:35 1021 30.15 850 25.1 7.3 45.1 56 -0.8 30.5
19:40 1021 30.15 850 25.1 7.5 45.5 53 -1.4 29.5
19:45 1021 30.15 850 25.1 7.6 45.7 52 -1.5 29.4
19:50 1021 30.15 850 25.1 7.6 45.8 53 -1.3 29.7
19:55 1021 30.15 850 25.1 7.5 45.6 53 -1.3 29.7
20:00 1021 30.15 850 25.1 7.4 45.3 54 -1.4 29.5
20:05 1021 30.15 850 25.1 7.3 45.1 57 -0.7 30.7
20:10 1021 30.15 850 25.1 7.1 44.8 58 -0.6 30.9
20:15 1021 30.15 850 25.1 7 44.6 56 -1.2 29.9
20:20 1021 30.15 850 25.1 7 44.6 55 -1.3 29.6
20:25 1021 30.15 850 25.1 6.9 44.4 55 -1.6 29.2
20:30 1021 30.15 850 25.1 6.7 44.1 53 -2.2 28
20:35 1021 30.15 850 25.1 6.8 44.2 53 -2.2 28.1
20:40 1021 30.15 850 25.1 6.8 44.2 53 -2.2 28.1
20:45 1021 30.15 850 25.1 6.7 44 55 -1.8 28.8
20:50 1021 30.15 850 25.1 6.4 43.4 56 -1.9 28.7
20:55 1021 30.15 850 25.1 6.2 43.1 57 -1.7 29
21:00 1021 30.15 850 25.1 5.9 42.7 58 -1.7 28.9
21:05 1021 30.15 850 25.1 6 42.8 57 -1.9 28.6
21:10 1021 30.15 850 25.1 6.1 42.9 57 -1.9 28.7
21:15 1021 30.15 850 25.1 5.9 42.7 58 -1.7 29
21:20 1021 30.15 850 25.1 5.6 42.1 60 -1.6 29.1
21:25 1021 30.15 851 25.13 5.2 41.4 62 -1.6 29.2
21:30 1021 30.15 851 25.13 4.9 40.9 62 -1.7 28.9
21:35 1021 30.15 851 25.13 4.9 40.9 63 -1.5 29.3
21:40 1021 30.15 851 25.13 5 41 61 -1.9 28.6
21:45 1021 30.15 851 25.13 5.3 41.5 60 -1.9 28.6
21:50 1021 30.15 851 25.13 5.6 42 59 -1.9 28.6
21:55 1021 30.15 851 25.13 5.8 42.5 57 -1.9 28.5
22:00 1021 30.15 851 25.13 6.1 42.9 58 -1.7 29
22:05 1021 30.15 851 25.13 5.9 42.6 58 -1.8 28.8
22:10 1021 30.15 851 25.13 6 42.7 57 -1.8 28.7
22:15 1021 30.15 851 25.13 6.1 42.9 56 -2 28.4
22:20 1021 30.15 851 25.13 6.1 43 57 -1.8 28.8
22:25 1021 30.15 851 25.13 6.2 43.1 57 -1.7 28.9
22:30 1021 30.15 851 25.13 6.3 43.3 56 -1.9 28.5
22:35 1022 30.18 851 25.13 6.2 43.2 56 -1.8 28.8
22:40 1021 30.15 851 25.13 6.2 43.1 57 -1.7 29
22:45 1021 30.15 851 25.13 6.1 43 57 -1.8 28.8
22:50 1022 30.18 851 25.13 6 42.9 58 -1.7 29
22:55 1022 30.18 851 25.13 6 42.8 58 -1.6 29.1
23:00 1022 30.18 851 25.13 6 42.7 58 -1.6 29.2
23:05 1022 30.18 851 25.13 5.9 42.5 60 -1.4 29.5
23:10 1022 30.18 851 25.13 5.7 42.3 60 -1.4 29.5
23:15 1022 30.18 851 25.13 5.6 42.2 61 -1.4 29.6
23:20 1022 30.18 851 25.13 5.4 41.7 63 -1 30.1
23:25 1021 30.15 851 25.13 4.9 40.8 63 -1.6 29.2
23:30 1021 30.15 851 25.13 5 41 62 -1.6 29.2
23:35 1021 30.15 851 25.13 5.1 41.2 62 -1.6 29.1
23:40 1021 30.15 850 25.1 5.2 41.3 62 -1.5 29.3
23:45 1021 30.15 851 25.13 5.2 41.4 62 -1.5 29.3
23:50 1021 30.15 850 25.1 5.2 41.3 62 -1.4 29.5
23:55 1021 30.15 850 25.1 5 41 63 -1.4 29.5
24:00 1021 30.15 850 25.1 4.8 40.6 64 -1.5 29.3